AirNav   Duncan Aviation - Near you to keep you flying
 
 423 users online  

8B5 Tanner-Hiller Airport
Barre/Barre Plains, Massachusetts, USA

GOING TO BARRE/BARRE PLAINS?


FAA INFORMATION EFFECTIVE 07 OCTOBER 2021

Location

FAA Identifier: 8B5
Lat/Long: 42-21-23.0000N 072-07-48.3000W
42-21.383333N 072-07.805000W
42.3563889,-72.1300833
(estimated)
Elevation: 589 ft. / 180 m (estimated)
Variation: 15W (1985)
From city: 4 miles SW of central business district of the associated city
Time zone: UTC -4 (UTC -5 during Standard Time)
Zip code: 01531

Airport Operations

Airport use: Open to the public
Activation date: 11/1946
Control tower: no
ARTCC: BOSTON CENTER
FSS: BRIDGEPORT FLIGHT SERVICE STATION
NOTAMs facility: BDR (NOTAM-D service available)
Attendance: UNATNDD
Wind indicator: yes
Segmented circle: no

Airport Communications

CTAF/UNICOM: 123.0
WX ASOS at ORH (12 nm SE): PHONE 508-795-7546
WX ASOS at ORE (15 nm NW): 135.675 (978-544-6774)

Nearby radio navigation aids

VOR radial/distance  VOR name  Freq  Var
GDMr210/11.8GARDNER VOR/DME110.6014W
PUTr346/27.2PUTNAM VOR/DME117.4014W
BAFr080/28.5BARNES VORTAC113.0014W
CTRr097/36.6CHESTER VOR/DME115.1013W

Airport Services

Parking: hangars and tiedowns
Airframe service: MINOR
Powerplant service: MINOR
Bottled oxygen: NONE
Bulk oxygen: NONE

Runway Information

Runway 6/24

Dimensions: 3027 x 40 ft. / 923 x 12 m
Surface: asphalt, in fair condition
Weight bearing capacity: 
Single wheel: 9.0
RUNWAY 6  RUNWAY 24
Latitude: 42-21.210210N42-21.556043N
Longitude: 072-08.047612W072-07.563877W
Elevation: 581.6 ft.589.0 ft.
Traffic pattern: leftleft
Displaced threshold: 150 ft.200 ft.
Markings: numbers only, in fair conditionnumbers only, in fair condition
Runway end identifier lights: nono
Touchdown point: yes, no lightsyes, no lights
Obstructions: 25 ft. trees, 400 ft. from runway, 100 ft. right of centerline, 8:1 slope to clear
72 FT TREES 57 FT FM THLD 65 FT L.
33 ft. trees, 400 ft. from runway, 39 ft. left and right of centerline, 6:1 slope to clear
RY 24 30:1 AT DSPLCD THLD.

Airport Ownership and Management from official FAA records

Ownership: Privately-owned
Owner: G&C GROUP USA
525 MAIN ST
ACTON, MA 01720
Phone (781) 296-1120
Manager: DOUG HERLIHY
295 MCEVOY ROAD
NEW BRAINTREE, MA 01531
Phone (609) 923-3228

Airport Operational Statistics

Aircraft based on the field: 25
Single engine airplanes: 4
Gliders airplanes: 15
Ultralights: 6
    
Aircraft operations: avg 58/month *
86% local general aviation
7% transient general aviation
7% military
* for 12-month period ending 27 April 2016

Additional Remarks

RWY 24 HAS GRVL OVRN, RWY 06 HAS TURF OVRN.
GLIDERS OPR FM ARPT ON INTMT BASIS. GLIDERS AND POWERED ACFT: FOLLOW LEFT TRAFFIC PATTERN ON BOTH RWYS.
WILDLIFE ON & INVOF ARPT.
FUEL NOT AVBL.
AP CLSD EXC PPR - REF NOTAMS
FOR CD CTC YANKEE APCH AT 860-386-3597

Instrument Procedures

There are no published instrument procedures at 8B5.

Some nearby airports with instrument procedures:

KORH - Worcester Regional Airport (12 nm SE)
KGDM - Gardner Municipal Airport (13 nm NE)
KORE - Orange Municipal Airport (15 nm NW)
3B0 - Southbridge Municipal Airport (16 nm S)
KFIT - Fitchburg Municipal Airport (20 nm NE)
 
Loc | Ops | Rwys | IFR | FBO | Links
Com | Nav | Svcs | Stats | Notes
Area around 8B5 (Tanner-Hiller Airport)
 
Road maps at: MapQuest Bing Google
 
Aerial photo
WARNING: Photo may not be current or correct
Aerial photo of 8B5 (Tanner-Hiller Airport)
Photo by Bruce Vinal, Aerial Perspectives
Photo taken 18-Dec-2010
looking southwest.

Do you have a better or more recent aerial photo of Tanner-Hiller Airport that you would like to share? If so, please send us your photo.

 
Sectional chart

 
Airport distance calculator
Flying to Tanner-Hiller Airport? Find the distance to fly.

From to 8B5

Sunrise and sunset
Times for 18-Oct-2021
 Local
(UTC-4)
 Zulu
(UTC)
Morning civil twilight06:3710:37
Sunrise07:0611:06
Sunset18:0222:02
Evening civil twilight18:3022:30

Current date and time
Zulu (UTC)  18-Oct-2021 07:30:45
Local (UTC-4)  18-Oct-2021 03:30:45
 
METAR
KORH 
13nm SE 
180654Z AUTO 29009KT 10SM BKN075 08/06 A2972 RMK AO2 SLP066 T00830061 $
KORE 
14nm NW 
180652Z AUTO 00000KT 10SM FEW044 BKN055 OVC110 08/07 A2975 RMK AO2 SLP074 T00830067
KCEF 
20nm SW 
180656Z AUTO 24005KT 10SM FEW032 BKN075 10/05 A2974 RMK AO2 SLP077 T00980050
KFIT 
20nm NE 
180652Z AUTO 29008KT 10SM OVC100 10/06 A2973 RMK AO2 SLP067 T01000061
TAF
KORH 
13nm SE 
180536Z 1806/1906 29010KT P6SM BKN100 FM181100 29009KT P6SM FEW250 FM181400 30011G18KT P6SM SCT060 FM181700 31012G20KT P6SM BKN060 FM182200 31010G18KT P6SM SCT050 FM190000 30010KT P6SM SCT060
KCEF 
20nm SW 
180206Z 1802/1908 27009KT 9999 FEW045 SCT110 BKN150 510153 QNH2974INS TEMPO 1802/1804 27010G18KT BECMG 1805/1806 29008KT 9999 FEW040 FEW200 510153 QNH2974INS BECMG 1814/1815 31010G18KT 9999 SCT045 SCT070 510005 QNH2972INS TEMPO 1817/1822 31012G21KT BKN045 BKN070 BECMG 1823/1824 30009KT 9999 FEW035 FEW180 510153 QNH2983INS TX14/1818Z TN05/1811Z LAST NO AMDS AFT 1803 NEXT 1811
NOTAMs
Click for the latest NOTAMs
NOTAMs are issued by the DoD/FAA and will open in a separate window not controlled by AirNav.

 

 
 

Would you like to see your business listed on this page?

 If your business provides an interesting product or service to pilots, flight crews, aircraft, or users of the Tanner-Hiller Airport, you should consider listing it here.  To start the listing process, click on the button below
 
Add a business
 

Other Pages about Tanner-Hiller Airport

www.tannerhillerairport.com
 
Update a link
 
Copyright © AirNav, LLC. All rights reserved. Privacy Policy  Contact